Location: Melque
(41.0517°N, 4.4694°W)
Time: 04:30:26
(UTC+00:00)

USA 238 DEB - Pass Details

Date: 11 December 2025
Orbit: 883 x 1328 km, 63.4° (Epoch: 10 January)

Event Time Altitude Azimuth Distance (km) Brightness Sun altitude
Rises 18:28:29 0° 218° (SW) 3,497 7.3 -18.0°
Reaches altitude 10° 18:30:54 10° 220° (SW) 2,586 6.5 -18.4°
Maximum altitude 18:36:54 77° 306° (NW) 986 3.5 -19.5°
Enters shadow 18:41:22 22° 30° (NNE) 2,067 4.8 -20.4°
